Погода в Самуйлове

Россия / Смоленская область     55°45′57″N   35°01′05″E
темп.,
°C
ветер,
м/с
пор.,
м/с
влажн.,
%
обл.,
%
осадки,
мм/ч
давл.,
гПа
погр.,
м
23 октября, сб
сб2300:00+5юз71473100 0.0 1002834
03:00+5юз61275100 0.0 10021017
06:00+5юз71487100 0.0 10011163
09:00+5юз7137790 0.1 10011193
12:00+7зюз7126851 0.1 10031437
15:00+7зюз6106422 0.2 10041388
18:00+4зюз4117940 0.3 1006554
21:00+4зюз51089100 0.4 10081124
24 октября, вс
вс2400:00+5зюз61084100 0.4 10081169
03:00+2зюз41095100 0.5 1010644
06:00+2зсз51096100 0.4 1011670
09:00+2сз6108279 0.9 1013915
12:00+3сз6117595 0.2 10161174
15:00+3ссз6116899 0.4 10181467
18:00+1ссз5117620 0.1 1021919
21:00−1ссз511825 0.1 1024628
25 октября, пн
пн2500:00−1ссз49855 0.0 1026454
03:00−2сз27925 0.0 1027247
06:00−2сз25915 0.0 1029165
09:00−1з2380100 0.0 1030185
12:00+2юз356280 0.0 1030586
15:00+3юз475894 0.0 1028716
18:00+1юз4117490 0.0 1028353
21:000юз413776 0.0 1027389
26 октября, вт
вт2600:000юз4128432 0.0 1027352
03:000юз413878 0.0 1026354
06:000юз5148785 0.0 1025385
09:00+1юз51578100 0.0 1024468
12:00+5юз61462100 0.0 1023590
15:00+6юз6146089 0.0 1021714
18:00+3юз51369100 0.0 1021454
21:00+2юз4137673 0.0 1020389
27 октября, ср
ср2700:00+2юз41279100 0.0 1020353
03:00+2юз41178100 0.0 1018356
06:00+2ююз41181100 0.0 1017351
09:00+2юз41280100 0.0 1016439
12:00+3юз4990100 0.8 1016365
15:00+3юз4996100 2.3 1015380
18:00+4зюз3897100 0.1 1015365
21:00+5з41095100 0.1 1016477